Location: Étang Rond
(42.7927°N, 1.0661°E)
Time: 01:10:26
(UTC+00:00)

CZ-4 R/B - Pass Details

Date: 08 November 2025
Orbit: 675 x 744 km, 98.7° (Epoch: 07 December)

Event Time Altitude Azimuth Distance (km) Brightness Sun altitude
Rises 05:30:26 0° 7° (N) 3,170 7.2 -12.8°
Reaches altitude 10° 05:32:49 10° 2° (N) 2,234 6.3 -12.4°
Maximum altitude 05:37:29 46° 290° (WNW) 961 4.1 -11.6°
Drops below altitude 10° 05:42:03 10° 218° (SW) 2,178 6.1 -10.8°
Sets 05:44:20 0° 212° (SSW) 3,082 6.9 -10.4°
